Regional Weather Roundup
Issued by NWS State College, PA

Home | Current Version | Previous Version | Text Only | Print | Product List | Glossary Off
Versions: 1 2 3 4 5 6 7 8 9 10 11 12 13 14 15 16 17 18 19 20 21 22 23 24 25 26 27 28 29 30 31 32 33 34 35 36 37 38 39 40 41 42 43 44 45 46 47 48 49 50

000
ASUS41 KCTP 010110
RWRCTP

REGIONAL WEATHER ROUNDUP
NATIONAL WEATHER SERVICE STATE COLLEGE PA
900 PM EDT WED AUG 31 2016

Note: "fair" indicates few or no clouds below 12,000 feet with no
significant weather and/or obstructions to visibility.

* = STATION THAT DOES NOT REPORT PRECIPITATION /E.G. RAIN...SNOW...ETC/
    THUNDER OR FOG.

PAZ002>004-007>009-013>016-020>023-029>032-010200-
WESTERN PENNSYLVANIA

CITY           SKY/WX    TMP DP  RH WIND       PRES   REMARKS
ERIE           CLOUDY    76  60  57 NW8       29.94R
MEADVILLE      CLOUDY    69  67  93 CALM      29.97R
FRANKLIN*        N/A     66  64  94 SW6       29.98S VSB 1
NEW CASTLE     MOCLDY    68  67  96 NE3       29.97R FOG
BEAVER COUNTY  DRIZZLE   68  66  94 CALM      29.96S
BUTLER*        NOT AVBL
PITTSBURGH INT LGT RAIN  70  66  87 N3        29.96R
PITTSBURGH     LGT RAIN  69  65  86 CALM      29.96R FOG
INDIANA*       CLOUDY    68  68 100 CALM      30.00R
LATROBE        CLOUDY    72  70  94 VRB7      29.97R
WASHINGTON CO* CLOUDY    68  64  88 W3        29.97R
$$

PAZ004>006-010>012-017>019-024>028-033>037-041-042-045-046-049>053-010200-
CENTRAL PENNSYLVANIA

CITY           SKY/WX    TMP DP  RH WIND       PRES   REMARKS
BRADFORD       MOCLDY    67  67 100 W5        29.98R
DUBOIS         PTCLDY    66  63  90 W3        29.98R FOG
CLEARFIELD     PTCLDY    67  66  97 CALM      29.97R
JOHNSTOWN      LGT RAIN  70  60  70 N7        30.01R
ALTOONA        CLOUDY    70  64  81 CALM      29.98R
STATE COLLEGE  LGT RAIN  70  64  83 CALM      29.96R
WILLIAMSPORT   CLOUDY    70  65  84 S5        29.92R
SELINSGROVE    CLOUDY    72  69  90 CALM      29.93R
FT INDIANTOWN  CLOUDY    71  70  97 VRB1      29.92R
CAPITAL CITY   CLOUDY    77  72  84 CALM      29.91R
HARRISBURG     CLOUDY    76  72  87 SE5       29.90S
YORK           CLOUDY    71  71 100 SE3       29.91F
$$

PAZ038>040-043-044-047-048-054-055-060>062-067>071-010200-
EASTERN PENNSYLVANIA

CITY           SKY/WX    TMP DP  RH WIND       PRES   REMARKS
SCRANTON       CLOUDY    74  68  81 W3        29.94R
MOUNT POCONO   CLOUDY    68  64  87 CALM      29.97R
ALLENTOWN      CLOUDY    77  68  73 CALM      29.90R
QUAKERTOWN*    CLOUDY    79  68  69 CALM      29.93R
READING        LGT RAIN  75  68  78 CALM      29.90S
LANCASTER      CLOUDY    72  72 100 CALM      29.92S FOG
COATESVILLE    CLOUDY    70  68  94 CALM      29.94S
POTTSTOWN      LGT RAIN  75  69  81 SW3       29.93R
BLUE BELL      CLOUDY    75  70  83 SW5       29.90R
DOYLESTOWN     CLOUDY    80  68  66 CALM      29.90R
WILLOW GROVE   NOT AVBL
NORTH PHILA    LGT RAIN  82  70  66 W10       29.91R
PHILADELPHIA   LGT RAIN  80  67  64 SW13      29.92R
$$




USA.gov is the U.S. government's official web portal to all federal, state and local government web resources and services.